一网星座-0174星 (ONEWEB-0174 )

导读 | 星芒AI

ONEWEB-0174 是 OneWeb 卫星通信公司发射的低轨通信卫星之一,属于其全球宽带互联网星座计划的一部分。该卫星运行在约 1200 公里的近地轨道,旨在为全球偏远地区提供高速互联网服务。OneWeb 通过部署大量此类卫星,构建覆盖全球的通信网络,支持航空、航海及地面用户的宽带接入。ONEWEB-0174 的发射进一步增强了该星座的覆盖能力与系统冗余性。

基本信息
目录编号:
48072
目录名称:
ONEWEB-0174
国际标识:
2021-025AG
轨道中心:
EARTH
卫星名称:
一网星座-0174星
卫星全名:
一网星座-0174星 (ONEWEB-0174 )
卫星状态:
在轨 (已飞行1726 天)
发射日期:
2021-03-25 UTC
国别 :
英国 (GB)
星等 :
--
轨道信息
数据来源 国际轨道数据 AOE轨道数据
星历时间 2025-12-15T06:25:21+0800
20小时前
查看轨道信息
2025-12-15T07:00:00+0800
20小时前
查看轨道信息
半长轴 7587.898km 7587.903km
偏心率 0.0001617 0.0001683
轨道倾角 87.898° 87.897°
近地点辐角 94.055° 99.852°
升交点赤经 356.847° 356.842°
平近点角 266.076° 13.982°
近地点 1208.536km 1208.49km
远地点 1210.99km 1211.046km
周期 109.633分钟 109.633分钟
每日圈数 13.134712 13.134699
详细信息
平衡模式:
三轴稳定
覆盖范围:
全球
运营商:
一网卫星公司
运营商所在国:
英国
制造商(研发单位):
一网卫星公司
制造商所在国:
英国
使用方式:
暂无
卫星简介
OneWeb卫星网络由648颗重约125公斤的微型卫星组成,运行在1200公里的轨道上。 每颗卫星都能够提供至少每秒8千兆位的吞吐量,以使用其高吞吐量的Ku频段有效载荷为家庭和移动平台提供互联网接入。该卫星仍在工作。
2D轨道图
3D轨道图
轨道高度分析图
轨道倾角分析图
轨道综合分析图
查看轨道综合分析图